Theta_e
290 290 289 289 289 289 289 289 289 288 289 289 289 289 290 290 291 291 292 292 292 293 293 293 293 294 294
289 289 289 289 289 289 288 288 288 287 288 289 289 289 289 290 290 291 291 291 292 292 292 292 292 292 293
289 288 289 289 288 288 288 287 287 287 287 287 287 288 288 289 289 289 290 290 290 291 291 291 291 292 292
288 288 288 287 288 287 286 286 286 286 286 287 287 287 287 287 288 288 289 289 290 290 290 291 291 292 292
288 288 287 287 286 286 286 286 285 285 285 285 285 285 286 286 287 288 288 289 289 289 290 290 290 291 291
287 286 286 286 285 286 285 284 285 284 284 283 284 284 285 285 286 288 288 288 289 289 289 290 290 290 291
286 286 285 285 285 284 284 284 284 283 283 283 283 284 284 285 284 285 286 287 288 289 289 289 290 290 290
285 285 284 284 284 284 283 283 283 283 283 283 283 284 283 283 283 284 286 288 289 288 289 289 289 289 289
285 284 284 284 284 283 283 283 283 282 282 283 283 283 283 283 283 284 285 284 286 287 288 289 289 289 289
283 283 283 282 283 282 282 282 282 282 281 282 282 282 282 282 283 282 283 283 284 285 286 287 289 288 288
282 282 282 282 281 281 281 281 281 281 281 282 281 281 282 282 282 282 283 283 283 283 284 286 287 287 287
281 281 281 280 280 280 279 280 281 281 281 281 281 282 282 281 281 282 282 282 283 283 284 286 286 287 287
280 280 280 279 279 280 280 280 280 280 281 281 281 281 281 281 281 282 282 282 282 283 285 285 286 286 287
279 279 279 279 279 279 280 280 280 281 280 281 281 281 281 281 281 281 281 282 282 282 283 284 284 285 286
278 278 278 279 279 279 279 280 280 280 280 281 281 281 281 281 281 281 282 282 283 283 283 284 284 284 285
278 278 278 278 279 279 279 280 280 280 280 280 281 281 280 280 281 281 281 282 282 282 283 284 284 285 285
277 278 278 278 278 278 279 279 280 280 280 281 281 281 280 280 280 280 280 280 280 281 282 282 283 284 285
Wind_Speed
19 20 22 21 22 22 23 26 26 27 28 28 30 29 28 27 26 26 25 26 25 23 23 23 23 23 24
18 19 20 22 22 23 25 22 23 26 26 28 29 29 28 27 28 26 26 25 25 24 24 24 23 23 23
18 19 20 20 23 22 20 23 23 25 27 27 29 27 26 27 28 27 26 26 26 26 25 24 23 22 23
17 20 19 23 20 21 23 24 26 27 27 24 25 26 30 27 27 26 26 25 23 24 24 24 24 24 24
18 18 20 21 20 23 24 26 27 26 27 24 29 29 28 27 26 24 25 26 27 27 26 26 26 24 25
16 18 20 21 21 22 24 25 22 23 27 33 26 28 27 29 27 28 28 28 26 27 25 25 25 25 25
17 18 21 22 23 25 25 24 26 28 27 29 25 27 27 23 29 34 33 30 30 26 24 24 23 20 23
17 19 23 23 24 24 25 26 25 24 23 27 28 25 26 32 32 30 26 25 23 21 22 24 25 26 25
18 22 22 22 21 22 21 22 22 22 23 22 26 33 30 30 27 23 22 30 27 27 26 26 26 26 26
20 19 18 19 18 17 20 20 23 23 18 27 27 25 18 25 19 35 28 31 31 30 28 27 22 23 25
16 17 18 17 18 19 20 21 24 25 31 29 28 29 21 28 27 30 29 30 32 33 29 26 23 23 24
16 18 18 20 21 23 25 23 25 29 33 31 26 27 29 29 28 29 29 30 29 31 31 27 24 23 23
16 17 19 23 25 23 24 25 28 30 30 28 29 29 28 29 30 29 29 30 29 27 24 23 22 22 23
18 20 23 23 23 25 25 27 27 30 32 28 27 28 28 29 30 30 29 24 29 29 27 25 24 23 23
19 22 23 23 24 25 25 26 25 27 30 29 30 29 27 31 30 29 28 27 25 27 27 23 25 23 21
21 21 23 24 25 26 26 24 25 27 29 30 30 27 29 26 21 25 24 24 25 27 25 23 22 23 21
24 25 24 25 25 25 25 25 25 28 30 29 28 23 11 12 28 23 27 28 29 27 25 24 24 25 22
Wind_Direction
309 317 320 321 321 318 321 321 321 321 319 319 317 315 311 307 305 302 296 296 296 295 297 300 300 298 295
309 316 319 318 316 322 315 315 319 317 317 314 313 311 309 306 302 302 300 297 294 294 293 295 299 298 295
308 313 312 318 318 316 321 320 319 317 315 312 311 311 310 311 306 302 300 296 295 292 291 289 292 293 294
309 310 315 320 317 323 325 321 317 318 313 310 311 312 311 311 308 304 299 296 296 293 289 290 289 290 290
305 313 318 321 327 324 317 317 317 316 317 313 314 313 313 311 309 304 303 299 299 292 290 289 288 289 288
309 310 308 313 320 316 315 317 312 313 318 310 317 312 314 313 311 309 307 299 298 295 291 289 290 288 286
295 303 311 315 315 318 312 308 307 313 314 304 312 306 313 311 311 306 303 297 294 293 293 292 290 293 296
303 304 302 303 306 305 303 303 303 309 311 304 313 310 314 308 308 309 310 312 305 297 298 297 293 294 292
308 305 304 306 307 306 307 309 307 311 316 314 318 313 313 307 304 312 314 315 307 303 299 294 290 290 287
312 309 309 309 308 313 317 314 314 316 317 319 315 321 314 305 310 308 308 306 308 303 295 287 289 291 288
312 316 314 313 318 316 311 311 307 300 305 312 308 303 292 301 304 305 303 301 303 302 297 290 283 283 281
324 316 315 317 315 312 311 307 300 296 302 304 296 299 300 299 299 303 299 297 297 295 294 289 283 281 282
316 315 316 313 312 311 311 310 312 310 304 303 298 295 290 293 296 298 301 301 296 295 299 296 295 286 280
319 317 318 316 314 314 313 312 307 305 307 306 304 295 288 288 289 290 291 286 295 296 296 287 292 287 285
324 321 316 313 310 313 312 307 303 301 304 308 307 300 293 293 291 290 291 291 291 294 292 287 288 283 281
320 315 310 307 309 311 308 304 299 300 305 307 307 307 307 301 294 294 300 298 296 297 293 285 277 279 277
317 311 311 309 310 306 305 305 303 302 302 305 307 306 303 303 309 305 300 297 294 292 286 281 278 279 278